Location: Newark
(43.9494°N, 6.8108°E)
Time: 05:51:43
(UTC+00:00)

Altair - All Passes

Search period start: 17 October 2019 00:00
Search period end: 27 October 2019 00:00
Orbit: 1501 x 1683 km, 47.2° (Epoch: 16 October)

Date Brightness Start Highest point End Pass type
(mag) Time Alt. Az. Time Alt. Az. Time Alt. Az.
17 Oct - 09:37:12 10° S 09:44:50 28° SE 09:52:41 10° ENE daylight
17 Oct - 11:38:54 10° SW 11:48:27 74° SSE 11:58:24 10° ENE daylight
17 Oct - 13:43:44 10° W 13:53:32 75° N 14:03:41 10° E daylight
17 Oct - 15:48:59 10° WNW 15:59:01 87° NNE 16:09:15 10° ESE daylight
17 Oct - 17:54:01 10° WNW 18:03:30 48° SW 18:13:02 10° SSE visible
17 Oct - 20:02:14 10° W 20:06:27 13° WSW 20:10:39 10° SSW visible
18 Oct - 09:12:31 10° S 09:19:48 26° SE 09:27:17 10° ENE daylight
18 Oct - 11:13:49 10° SW 11:23:17 70° SSE 11:33:10 10° ENE daylight
18 Oct - 13:18:31 10° W 13:28:17 76° N 13:38:25 10° E daylight
18 Oct - 15:23:46 10° WNW 15:33:47 84° NNE 15:44:00 10° ESE daylight
18 Oct - 17:28:47 10° WNW 17:38:21 51° SW 17:48:02 10° SSE visible
18 Oct - 19:36:18 10° W 19:41:25 15° WSW 19:46:33 10° SSW visible
19 Oct - 08:47:52 10° S 08:54:46 23° SE 09:01:50 10° E daylight
19 Oct - 10:48:46 10° SW 10:58:08 67° SSE 11:07:56 10° ENE daylight
19 Oct - 12:53:18 10° W 13:03:02 77° N 13:13:10 10° ENE daylight
19 Oct - 14:58:35 10° WNW 15:08:32 82° NNE 15:18:45 10° ESE daylight
19 Oct - 17:03:34 10° WNW 17:13:13 55° SW 17:23:00 10° SE visible
19 Oct - 19:10:34 10° W 19:16:23 17° SW 19:22:15 10° SSW visible
20 Oct - 08:23:18 10° S 08:29:45 21° SE 08:36:20 10° E daylight
20 Oct - 10:23:43 10° SW 10:33:00 63° SE 10:42:41 10° ENE daylight
20 Oct - 12:28:05 10° W 12:37:48 78° N 12:47:54 10° ENE daylight
20 Oct - 14:33:22 10° WNW 14:43:18 80° NNE 14:53:29 10° ESE daylight
20 Oct - 16:38:21 10° WNW 16:48:04 58° SW 16:57:56 10° SE daylight
20 Oct - 18:44:56 10° W 18:51:21 19° SW 18:57:48 10° SSW visible
21 Oct - 07:58:48 10° SSE 08:04:44 19° SE 08:10:47 10° E daylight
21 Oct - 09:58:41 10° SW 10:07:52 59° SE 10:17:26 10° ENE daylight
21 Oct - 12:02:53 10° W 12:12:34 79° NNW 12:22:37 10° ENE daylight
21 Oct - 14:08:10 10° WNW 14:18:03 79° NNE 14:28:14 10° E daylight
21 Oct - 16:13:08 10° WNW 16:22:54 62° SW 16:32:51 10° SE daylight
21 Oct - 18:19:24 10° W 18:26:18 21° SW 18:33:17 10° S visible
22 Oct - 07:34:24 10° SSE 07:39:44 17° SE 07:45:09 10° E daylight
22 Oct - 09:33:40 10° SW 09:42:45 56° SE 09:52:12 10° ENE daylight
22 Oct - 11:37:42 10° WSW 11:47:19 81° NNW 11:57:22 10° ENE daylight
22 Oct - 13:42:58 10° WNW 13:52:48 77° N 14:02:57 10° E daylight
22 Oct - 15:47:56 10° WNW 15:57:44 65° SSW 16:07:44 10° SE daylight
22 Oct - 17:53:56 10° W 18:01:15 24° SW 18:08:39 10° S visible
23 Oct - 07:10:10 10° SSE 07:14:44 15° ESE 07:19:23 10° E daylight
23 Oct - 09:08:41 10° SW 09:17:38 52° SE 09:26:57 10° ENE daylight
23 Oct - 11:12:31 10° WSW 11:22:06 83° NNW 11:32:07 10° ENE daylight
23 Oct - 13:17:46 10° WNW 13:27:33 76° N 13:37:41 10° E daylight
23 Oct - 15:22:44 10° WNW 15:32:34 69° SSW 15:42:36 10° SE daylight
23 Oct - 17:28:30 10° WNW 17:36:11 26° SW 17:43:58 10° S visible
24 Oct - 06:46:09 10° SE 06:49:45 13° ESE 06:53:24 10° E daylight
24 Oct - 08:43:43 10° SSW 08:52:32 48° SE 09:01:41 10° ENE daylight
24 Oct - 10:47:20 10° WSW 10:56:53 85° NNW 11:06:52 10° ENE daylight
24 Oct - 12:52:34 10° W 13:02:18 75° N 13:12:24 10° E daylight
24 Oct - 14:57:33 10° WNW 15:07:22 72° SSW 15:17:28 10° SE daylight
24 Oct - 17:03:08 10° WNW 17:11:07 28° SW 17:19:13 10° S visible
25 Oct - 06:22:40 10° SE 06:24:47 11° ESE 06:26:54 10° ESE daylight
25 Oct - 08:18:47 10° SSW 08:27:27 45° SE 08:36:25 10° ENE daylight
25 Oct - 10:22:10 10° WSW 10:31:41 88° NNW 10:41:37 10° ENE daylight
25 Oct - 12:27:21 10° W 12:37:03 74° N 12:47:07 10° E daylight
25 Oct - 14:32:22 10° WNW 14:42:12 76° SSW 14:52:18 10° SE daylight
25 Oct - 16:37:46 10° WNW 16:46:03 31° SW 16:54:26 10° S daylight
26 Oct - 07:53:52 10° SSW 08:02:22 42° SE 08:11:09 10° ENE daylight
26 Oct - 09:57:01 10° WSW 10:06:29 90° SSE 10:16:23 10° ENE daylight
26 Oct - 12:02:09 10° W 12:11:48 74° N 12:21:50 10° E daylight
26 Oct - 14:07:11 10° WNW 14:17:00 79° SSW 14:27:07 10° ESE daylight
26 Oct - 16:12:28 10° WNW 16:20:58 33° SW 16:29:36 10° SSE daylight
